Casa Grande, AZ

8:53 PM MST on November 13, 2019 (GMT -0700)
Casa Grande Municipal

Weather History for KCGZ - September, 2019

Change the Weather History Date:

Thursday, September 19, 2019

  Actual Average Record
Temperature  
Mean Temperature 86 °F -  
Max Temperature 100 °F 94 °F 104 °F (1998)
Min Temperature 71 °F 67 °F 60 °F (2006)
Cooling Degree Days 20    
Growing Degree Days 36 (Base 50)    
Moisture  
Dew Point 45 °F    
Average Humidity 25    
Maximum Humidity 42    
Minimum Humidity 12    
Precipitation  
Precipitation 0.00 in - - ()
Sea Level Pressure  
Sea Level Pressure 29.73 in    
Wind  
Wind Speed 6 mph ()    
Max Wind Speed 20 mph    
Max Gust Speed 28 mph    
Visibility 9.8 miles    
Events      
Averages and records for this station are not official NWS values.
T = Trace of Precipitation, MM = Missing Value Source: Averaged Metar Reports

Daily Weather History Graph

Daily Weather History Graph

Search for Another Location

Airport or City:

Astronomy

Sep. 19, 2019 Rise Set
Actual Time 6:13 AM MST 6:28 PM MST
Civil Twilight 5:48 AM MST 6:52 PM MST
Nautical Twilight 5:19 AM MST 7:21 PM MST
Astronomical Twilight 4:50 AM MST 7:50 PM MST
Moon 9:55 PM MST (9/19) 11:05 AM MST (9/19)
Length of Visible Light 13h 04m
Length of Day
12h 14m
Waning Gibbous, 73% of the Moon is Illuminated
Sep 19
Waning Gibbous
Sep 21
Last Quarter
Sep 28
New
Oct 5
First Quarter
Oct 13
Full

Hourly Weather History & Observations

Time (MST) Temp. Dew Point Humidity Pressure Visibility Wind Dir Wind Speed Gust Speed Precip Events Conditions
12:56 AM 78.1 °F 46.9 °F 33% 29.78 in 10.0 mi South 5.8 mph - N/A   Clear
1:56 AM 75.0 °F 46.9 °F 37% 29.78 in 10.0 mi ENE 4.6 mph - N/A   Partly Cloudy
2:56 AM 75.9 °F 48.0 °F 37% 29.78 in 10.0 mi Calm Calm - N/A   Mostly Cloudy
3:56 AM 75.9 °F 48.0 °F 37% 29.78 in 10.0 mi Calm Calm - N/A   Mostly Cloudy
4:56 AM 72.0 °F 46.0 °F 40% 29.78 in 10.0 mi Calm Calm - N/A   Clear
5:56 AM 75.0 °F 50.0 °F 41% 29.78 in 10.0 mi Calm Calm - N/A   Partly Cloudy
6:56 AM 71.1 °F 46.9 °F 42% 29.81 in 10.0 mi ENE 4.6 mph - N/A   Clear
7:56 AM 81.0 °F 51.1 °F 35% 29.81 in 10.0 mi ESE 3.5 mph - N/A   Clear
8:56 AM 88.0 °F 50.0 °F 27% - 10.0 mi SSE 8.1 mph - N/A   Clear
9:56 AM 91.0 °F 50.0 °F 24% 29.80 in 10.0 mi South 10.4 mph - N/A   Clear
10:56 AM 91.9 °F 51.1 °F 25% 29.78 in 10.0 mi Variable 5.8 mph - N/A   Clear
11:56 AM 97.0 °F 48.0 °F 19% 29.75 in 10.0 mi SSW 17.3 mph - N/A   Clear
12:56 PM 99.0 °F 48.0 °F 18% 29.72 in 10.0 mi SSW 16.1 mph 27.6 mph N/A   Clear
1:56 PM 100.0 °F 46.0 °F 16% 29.69 in 10.0 mi SW 19.6 mph 27.6 mph N/A   Clear
2:56 PM 100.0 °F 43.0 °F 14% 29.67 in 10.0 mi South 19.6 mph 25.3 mph N/A   Clear
3:56 PM 100.0 °F 37.9 °F 12% 29.65 in 10.0 mi WSW 15.0 mph 27.6 mph N/A   Clear
4:56 PM 100.0 °F 39.9 °F 13% 29.65 in 10.0 mi SSW 18.4 mph - N/A   Clear
5:56 PM 97.0 °F 41.0 °F 14% 29.65 in 10.0 mi South 11.5 mph - N/A   Clear
6:56 PM 91.9 °F 42.1 °F 18% 29.65 in 10.0 mi SSW 10.4 mph - N/A   Clear
7:56 PM 87.1 °F 39.0 °F 18% 29.66 in 10.0 mi SSW 9.2 mph - N/A   Clear
8:56 PM 84.0 °F 39.0 °F 20% 29.68 in 10.0 mi SW 9.2 mph - N/A   Clear
9:56 PM 82.0 °F 39.9 °F 22% 29.69 in 10.0 mi WSW 5.8 mph - N/A   Clear
10:56 PM 79.0 °F 39.0 °F 24% 29.70 in 6.0 mi WSW 8.1 mph - N/A   Haze
11:56 PM 77.0 °F 37.9 °F 24% 29.72 in 10.0 mi East 3.5 mph - N/A   Clear